FW1232 Weather Reports


time (UTC)temp
F
wind
direction
speed
knots
gust
knots
rain 1hr
in
rain 24hr
in
rain mn
in
humidity
%
barometer
mb
20210920063122 71 63 3.5 8.7 0.05 0.16 0.10 95 1018.1
20210920061623 71 63 3.5 7.8 0.06 0.15 0.09 96 1018.3
20210920060235 71 88 2.6 7.0 0.06 0.15 0.09 95 1018.7
20210920054644 71 58 1.7 3.5 0.06 0.14 0.08 97 1018.5
20210920053215 71 53 0.9 3.5 0.03 0.11 0.05 97 1018.7
20210920051726 71 101 1.7 2.6 0.02 0.09 0.03 96 1018.5
20210920050130 72 0 0.0 2.6 0.03 0.09 0.03 96 1018.7
20210920044629 72 61 2.6 5.2 0.04 0.08 0.02 95 1018.6
20210920043119 72 63 2.6 4.3 0.07 0.08 0.02 96 1018.7
20210920041641 72 103 0.9 2.6 0.06 0.07 0.01 95 1018.7
20210920040202 72 82 1.7 5.2 0.05 0.06 0.00 95 1018.8
20210920034642 72 0 0.0 0.0 0.04 0.04 0.04 96 1018.9
20210920033136 72 0 0.0 2.6 0.01 0.01 0.01 95 1018.9
20210920031616 72 0 0.9 5.2 0.01 0.01 0.01 95 1018.6
20210920030143 72 74 0.9 3.5 0.01 0.01 0.01 95 1018.5
20210920024702 73 68 1.7 5.2 0.00 0.00 0.00 95 1018.5
20210920023130 73 0 2.6 4.3 0.00 0.00 0.00 95 1018.2
20210920021743 73 70 0.0 4.3 0.00 0.00 0.00 95 1018.2
20210920020116 73 68 2.6 6.1 0.00 0.00 0.00 94 1018.2
20210920014604 73 105 2.6 5.2 0.00 0.00 0.00 94 1018.4
20210920013238 73 121 2.6 6.1 0.00 0.00 0.00 94 1018.4
20210920011738 73 99 1.7 5.2 0.00 0.00 0.00 94 1018.3
20210920010132 73 70 1.7 6.1 0.00 0.00 0.00 94 1018.1
20210920004730 73 79 1.7 3.5 0.00 0.00 0.00 94 1018.0
20210920003228 73 76 3.5 7.0 0.00 0.00 0.00 94 1018.0
20210920001642 73 73 3.5 7.8 0.00 0.00 0.00 94 1018.0
20210920000116 73 113 0.9 2.6 0.00 0.00 0.00 95 1018.0
20210919234632 73 72 0.9 1.7 0.00 0.00 0.00 95 1018.0
20210919233057 73 0 0.0 0.0 0.00 0.00 0.00 94 1018.1
20210919231635 74 313 0.0 0.0 0.00 0.00 0.00 91 1018.0
20210919230212 74 313 0.0 2.6 0.00 0.00 0.00 90 1018.2
20210919224608 74 313 1.7 4.3 0.00 0.00 0.00 89 1018.3
20210919223100 74 311 2.6 4.3 0.00 0.00 0.00 90 1018.4
20210919221800 75 304 1.7 3.5 0.00 0.00 0.00 88 1018.6
20210919220126 75 273 2.6 6.1 0.00 0.00 0.00 88 1018.7
20210919214658 75 267 3.5 6.1 0.00 0.00 0.00 86 1018.6
20210919213136 76 269 0.9 3.5 0.00 0.00 0.00 87 1018.3
20210919211702 76 217 2.6 7.0 0.00 0.00 0.00 85 1018.1
20210919210210 76 246 1.7 7.0 0.00 0.00 0.00 85 1018.2
20210919204635 77 246 3.5 8.7 0.00 0.00 0.00 83 1018.3
20210919203246 76 250 3.5 7.8 0.00 0.00 0.00 83 1018.4
20210919201715 76 288 3.5 8.7 0.00 0.00 0.00 84 1018.6
20210919200142 77 209 4.3 8.7 0.00 0.00 0.00 87 1018.6
20210919194633 77 260 1.7 5.2 0.00 0.00 0.00 89 1018.7
20210919193143 77 248 0.9 5.2 0.00 0.00 0.00 87 1018.9
20210919191600 78 0 1.7 5.2 0.00 0.00 0.00 87 1019.1
20210919190251 77 0 0.9 2.6 0.00 0.00 0.00 86 1019.3
20210919184617 77 0 1.7 4.3 0.00 0.00 0.00 86 1019.5
20210919183138 78 0 0.0 0.0 0.00 0.00 0.00 85 1019.5
20210919181806 77 0 0.0 0.0 0.00 0.00 0.00 86 1019.7
20210919180218 77 0 0.0 0.0 0.00 0.00 0.00 86 1019.8
20210919174628 77 0 0.0 0.0 0.00 0.00 0.00 87 1020.1
20210919173137 77 0 0.9 3.5 0.00 0.00 0.00 86 1020.2
20210919171705 77 0 0.0 2.6 0.00 0.00 0.00 87 1020.3
20210919170159 76 0 0.0 0.0 0.00 0.00 0.00 87 1020.3
20210919164638 76 0 0.0 0.0 0.00 0.00 0.00 88 1020.4
20210919163221 75 0 0.0 0.0 0.00 0.00 0.00 91 1020.4
20210919161654 75 0 0.0 2.6 0.00 0.00 0.00 91 1020.4
20210919160117 75 62 0.9 2.6 0.00 0.00 0.00 91 1020.5
20210919154633 75 90 1.7 4.3 0.00 0.00 0.00 92 1020.4
20210919153237 74 44 2.6 3.5 0.00 0.00 0.00 92 1020.4
20210919151623 75 30 1.7 3.5 0.00 0.00 0.00 92 1020.4
20210919150212 75 103 0.0 2.6 0.00 0.00 0.00 92 1020.4
20210919144608 74 107 0.9 5.2 0.00 0.00 0.00 93 1020.3
20210919143142 73 69 0.0 2.6 0.00 0.00 0.00 94 1020.2
20210919141743 73 44 3.5 5.2 0.00 0.00 0.00 95 1020.2
20210919140115 73 90 0.9 5.2 0.00 0.00 0.00 95 1020.2
20210919134643 73 98 3.5 7.0 0.00 0.00 0.00 94 1020.1
20210919133307 73 42 2.6 7.0 0.00 0.00 0.00 96 1020.0
20210919131617 73 83 1.7 5.2 0.00 0.00 0.00 96 1020.1
20210919130123 72 78 3.5 5.2 0.00 0.00 0.00 96 1020.0
20210919124614 72 45 0.9 4.3 0.00 0.00 0.00 96 1020.0
20210919123230 72 15 2.6 6.1 0.00 0.00 0.00 97 1019.9
20210919121759 72 11 3.5 5.2 0.00 0.00 0.00 97 1019.9
20210919120217 72 26 0.9 2.6 0.00 0.00 0.00 97 1019.8
20210919114731 71 57 1.7 3.5 0.00 0.00 0.00 97 1019.9
20210919113150 71 73 0.0 2.6 0.00 0.00 0.00 98 1019.6
20210919111701 71 98 1.7 4.3 0.00 0.00 0.00 98 1019.3
20210919110249 71 55 1.7 4.3 0.00 0.00 0.00 99 1019.3
20210919104622 71 92 1.7 3.5 0.00 0.00 0.00 99 1019.4
20210919103132 71 133 1.7 3.5 0.00 0.00 0.00 99 1019.4
20210919101638 71 0 0.0 0.0 0.00 0.00 0.00 99 1019.3
20210919100104 71 144 0.0 0.0 0.00 0.00 0.00 99 1019.5
20210919094719 71 0 0.0 0.0 0.00 0.00 0.00 99 1019.3
20210919093119 71 0 0.0 0.0 0.00 0.00 0.00 99 1019.2
20210919091747 71 144 0.9 2.6 0.00 0.00 0.00 99 1019.1
20210919090128 71 155 0.9 3.5 0.00 0.00 0.00 99 1019.2
20210919084619 71 162 1.7 4.3 0.00 0.00 0.00 98 1019.2
20210919083145 71 0 0.9 3.5 0.00 0.00 0.00 99 1019.2
20210919081621 71 0 0.0 0.0 0.00 0.00 0.00 98 1019.1
20210919080201 71 0 0.0 2.6 0.00 0.00 0.00 98 1019.3
20210919074709 71 137 0.9 3.5 0.00 0.00 0.00 98 1019.5
20210919073111 71 142 0.9 3.5 0.00 0.00 0.00 98 1019.5
20210919071627 72 137 0.9 2.6 0.00 0.00 0.00 98 1019.5
20210919070212 72 82 1.7 3.5 0.00 0.00 0.00 98 1019.5
20210919064652 72 0 0.0 0.0 0.00 0.00 0.00 98 1019.5